Terminal Aerodrome Forecast
Issued by NWS Wilmington, OH

Current Version | Previous Version | Graphics & Text | Print | Product List | Glossary On
Versions: 1 2 3 4 5 6 7 8 9 10 11 12 13 14 15 16 17 18 19 20 21 22 23 24 25 26
000
FTUS41 KILN 012100 AAB
TAFCVG
TAF AMD
KCVG 012148Z 0122/0224 VRB04KT P6SM SKC
     FM021100 15007KT P6SM SCT050 BKN120
     FM021500 18008G16KT P6SM SCT050 BKN100=

USA.gov is the U.S. government's official web portal to all federal, state and local government web resources and services.